698  
ASUS44 KLZK 071201  
RWRLZK  
 
WEATHER ROUNDUP FOR ARKANSAS  
NATIONAL WEATHER SERVICE LITTLE ROCK AR  
600 AM CST TUE FEB 07 2023  
 
NOTE: "FAIR" INDICATES FEW OR NO CLOUDS BELOW 12,000 FEET WITH NO  
SIGNIFICANT WEATHER AND/OR S TO VISIBILITY
.  
 
ARZ001-010-029-103-071300-  
NORTHWEST ARKANSAS  
 
CITY SKY/WX TMP DP RH WIND PRES REMARKS
 
FAYETTEVILLE CLOUDY 49 46 90 CALM 30.06R FOG  
6HR MIN TEMP: 49; 6HR MAX TEMP: 61; 6HR PCP: TRACE;  
 
FORT SMITH CLOUDY 57 53 86 CALM 30.02R  
6HR MIN TEMP: 53; 6HR MAX TEMP: 57;  
 
HARRISON CLOUDY 50 48 93 NW7 30.05R  
6HR MIN TEMP: 50; 6HR MAX TEMP: 59; 6HR PCP: 0.05;  
 
BENTONVILLE LGT RAIN 44 43 96 N3 30.09R  
6HR MIN TEMP: 44; 6HR MAX TEMP: 57; 6HR PCP: 0.02;  
 
ROGERS LGT RAIN 44 43 96 N5 30.08R  
6HR MIN TEMP: 44; 6HR MAX TEMP: 57; 6HR PCP: 0.01;  
 
SILOAM SPGS LGT RAIN 45 45 100 VRB5 30.09R  
6HR MIN TEMP: 45; 6HR MAX TEMP: 58; 6HR PCP: TRACE;  
 
HIGHFILL LGT RAIN 45 44 97 N5 30.06R  
6HR MIN TEMP: 45; 6HR MAX TEMP: 57; 6HR PCP: 0.01;  
 

 
 
ARZ004-005-016-071300-  
NORTH CENTRAL ARKANSAS  
 
CITY SKY/WX TMP DP RH WIND PRES REMARKS
 
BATESVILLE MOCLDY 57 49 74 SW10 30.06R  
6HR MIN TEMP: 57; 6HR MAX TEMP: 60;  
 
FLIPPIN LGT RAIN 58 51 78 W7 30.04R  
6HR MIN TEMP: 57; 6HR MAX TEMP: 60; 6HR PCP: TRACE;  
 
MTN HOME CLOUDY 57 50 77 VRB5 30.02R  
6HR MIN TEMP: 57; 6HR MAX TEMP: 59;  
 

 
 
ARZ140-141-071300-  
WEST CENTRAL ARKANSAS  
 
CITY SKY/WX TMP DP RH WIND PRES REMARKS
 
MENA LGT RAIN 56 54 93 VRB3 30.05R  
MOUNT IDA MOCLDY 59 51 75 VRB7 30.02  
6HR MIN TEMP: 58; 6HR MAX TEMP: 63;  
 

 
 
ARZ009-017-025-026-028-071300-  
NORTHEAST ARKANSAS  
 
CITY SKY/WX TMP DP RH WIND PRES REMARKS
 
JONESBORO N/A N/A N/A N/A MISG 30.08R  
NEWPORT MOCLDY 50 47 89 S9 30.08R  
6HR MIN TEMP: 49; 6HR MAX TEMP: 57;  
 
WALNUT RIDGE CLOUDY 52 50 93 S9 30.06R  
6HR MIN TEMP: 51; 6HR MAX TEMP: 56;  
 
BLYTHEVILLE CLOUDY 54 45 71 S14G24 30.07S  
6HR MIN TEMP: 48; 6HR MAX TEMP: 54;  
 

 
 
ARZ032-043-044-071300-  
LITTLE ROCK METRO AREA  
 
CITY SKY/WX TMP DP RH WIND PRES REMARKS
 
LITTLE ROCK MOCLDY 52 46 80 S6 30.09R  
6HR MIN TEMP: 52; 6HR MAX TEMP: 60;  
 
NLR AIRPORT CLOUDY 54 50 87 VRB5 30.07R  
JACKSONVILLE CLOUDY 53 46 77 CALM 30.07R  
6HR MIN TEMP: 53; 6HR MAX TEMP: 60;  
 
CONWAY CLOUDY 55 52 88 SE8 30.07R  

 
 
ARZ033-042-122-123-071300-  
REMAINDER OF CENTRAL ARKANSAS  
 
CITY SKY/WX TMP DP RH WIND PRES REMARKS
 
SEARCY MOCLDY 53 48 83 SW5 30.10R  
6HR MIN TEMP: 50; 6HR MAX TEMP: 60;  
 
HOT SPRINGS CLOUDY 57 50 77 S3 30.07R  
6HR MIN TEMP: 57; 6HR MAX TEMP: 61;  
 
RUSSELLVILLE CLOUDY 58 50 75 E3 30.04R  
6HR MIN TEMP: 52; 6HR MAX TEMP: 60;  
 
CLINTON CLOUDY 54 50 87 SE7 30.05S  

 
 
ARZ036-071300-  
EAST ARKANSAS  
 
CITY SKY/WX TMP DP RH WIND PRES REMARKS
 
WEST MEMPHIS PTCLDY 50 44 80 S9 30.10R  
6HR MIN TEMP: 49; 6HR MAX TEMP: 58;  
 

 
 
ARZ050-053-066-070-072-073-071300-  
SOUTHWEST ARKANSAS  
 
CITY SKY/WX TMP DP RH WIND PRES REMARKS
 
ARKADELPHIA PTSUNNY 49 48 97 CALM 30.09S  
6HR MIN TEMP: 46; 6HR MAX TEMP: 56;  
 
CAMDEN CLOUDY 50 50 100 CALM 30.09R  
TEXARKANA CLOUDY 57 50 77 S7 30.05R  
6HR MIN TEMP: 55; 6HR MAX TEMP: 59;  
 
MAGNOLIA CLOUDY 57 52 82 S9 30.06S  
EL DORADO CLOUDY 50 48 93 S13 30.09R  
6HR MIN TEMP: 43; 6HR MAX TEMP: 54;  
 
DE QUEEN CLOUDY 58 51 78 CALM 30.04R  
6HR MIN TEMP: 58; 6HR MAX TEMP: 63;  
 

 
 
ARZ056-057-069-071300-  
SOUTHEAST ARKANSAS  
 
CITY SKY/WX TMP DP RH WIND PRES REMARKS
 
PINE BLUFF PTCLDY 47 44 90 SE5 30.10R  
6HR MIN TEMP: 46; 6HR MAX TEMP: 54;  
 
STUTTGART PTCLDY 50 46 86 S7 30.11R  
6HR MIN TEMP: 49; 6HR MAX TEMP: 54;  
 
MONTICELLO CLEAR 50 46 86 S6 30.11R  
6HR MIN TEMP: 49; 6HR MAX TEMP: 54;  
 

 
 
 
 
CLICK HERE TO GO TO PREVIOUS BULLETINS.

The Nexlab AR Page Main Text Page